This is the latest recevied weather packets stored in our database for station/object N4TLC. If no packets are shown the sender has not sent any weather packets the latest 1 day(s).
| Time | Temp. | Humidity | Pressure | Rain* | Wind** | Luminosity | Snow |
|---|---|---|---|---|---|---|---|
| 1778008424 | 25.56° C | 35% | 1016.4 hPa | 0 mm | 0.89 m/s, 174° | 810 W/m² | - |
| 1778008120 | 25° C | 35% | 1016.7 hPa | 0 mm | 1.34 m/s, 162° | 436 W/m² | - |
| 1778007816 | 25.56° C | 33% | 1016.7 hPa | 0 mm | 1.34 m/s, 215° | 473 W/m² | - |
| 1778007511 | 26.11° C | 32% | 1017 hPa | 0 mm | 1.79 m/s, 145° | 631 W/m² | - |
| 1778007208 | 26.11° C | 34% | 1017.1 hPa | 0 mm | 0.89 m/s, 226° | 963 W/m² | - |
| 1778006904 | 25.56° C | 34% | 1017.2 hPa | 0 mm | 0.89 m/s, 235° | 992 W/m² | - |
| 1778006601 | 25.56° C | 35% | 1017.1 hPa | 0 mm | 1.34 m/s, 186° | 972 W/m² | - |
| 1778006298 | 25.56° C | 34% | 1017.3 hPa | 0 mm | 1.79 m/s, 196° | 933 W/m² | - |
| 1778005995 | 25.56° C | 35% | 1017.2 hPa | 0 mm | 0.89 m/s, 145° | 1028 W/m² | - |
| 1778005692 | 25.56° C | 34% | 1017.5 hPa | 0 mm | 1.79 m/s, 156° | 998 W/m² | - |
| 1778005389 | 25.56° C | 34% | 1017.4 hPa | 0 mm | 1.79 m/s, 160° | 676 W/m² | - |
| 1778005085 | 25° C | 34% | 1017.4 hPa | 0 mm | 0.89 m/s, 165° | 757 W/m² | - |
| 1778004783 | 25° C | 34% | 1017.3 hPa | 0 mm | 1.34 m/s, 211° | 766 W/m² | - |
| 1778004479 | 25.56° C | 34% | 1017.5 hPa | 0 mm | 1.34 m/s, 138° | 818 W/m² | - |
| 1778004176 | 25.56° C | 34% | 1017.5 hPa | 0 mm | 1.34 m/s, 162° | 813 W/m² | - |
| 1778003872 | 25.56° C | 35% | 1017.5 hPa | 0 mm | 2.24 m/s, 194° | 896 W/m² | - |
| 1778003569 | 25° C | 36% | 1017.5 hPa | 0 mm | 2.24 m/s, 187° | 913 W/m² | - |
| 1778003265 | 25° C | 36% | 1017.8 hPa | 0 mm | 1.34 m/s, 191° | 781 W/m² | - |
| 1778002963 | 25° C | 35% | 1017.6 hPa | 0 mm | 1.34 m/s, 191° | 661 W/m² | - |
| 1778002658 | 25° C | 34% | 1017.7 hPa | 0 mm | 1.79 m/s, 200° | 729 W/m² | - |
| 1778002355 | 25° C | 35% | 1017.7 hPa | 0 mm | 2.68 m/s, 194° | 765 W/m² | - |
| 1778002052 | 25° C | 34% | 1017.6 hPa | 0 mm | 2.68 m/s, 202° | 729 W/m² | - |
| 1778001749 | 25° C | 35% | 1017.7 hPa | 0 mm | 1.79 m/s, 198° | 704 W/m² | - |
| 1778001449 | 25° C | 36% | 1017.8 hPa | 0 mm | 1.79 m/s, 149° | 318 W/m² | - |
| 1778001147 | 25° C | 36% | 1017.9 hPa | 0 mm | 1.79 m/s, 204° | 294 W/m² | - |
* Rain latest hour (hover to see other rain measurements)
** Current wind speed in m/s (hover to see current wind gust speed)